Date String (YYYY-MM-DD hh:mm:ss) UTC,Instrument flags,Ambient pressure (hPa),Sample flow (lpm),Bypass flow (lpm),Sample temperature (°C),Ambient temperature (°C),ASC tube jacket temperature (°C),LED temperature (°C),Box temperature (°C),Sample RH (%),Span deviation,Mass concentration (μg/m³),Mass concentration (μg/m³),Mass concentration (μg/m³)
DateTimeUTC,F1_M11,P_M11,Q1_M11,Q2_M11,T1_M11,T2_M11,T3_M11,T4_M11,T5_M11,U1_M11,ZSPAN_M11,X0_M11,X2_M11,X1_M11
2023-03-05 12:00:00,,0815.0,4.99,0.00,21.7,22.3,00.0,30.3,23.6,14.1,-000.3,0027.85,0013.72,0010.98
2023-03-05 12:01:00,,0815.1,5.00,0.00,21.8,22.6,00.0,30.4,23.8,14.0,-000.3,0028.60,0013.78,0011.01
2023-03-05 12:02:00,,0815.0,5.02,0.00,21.8,21.9,00.0,30.4,23.6,14.0,-000.2,0029.79,0013.78,0011.04
2023-03-05 12:03:00,,0815.1,5.01,0.00,21.8,21.2,00.0,30.4,23.4,14.0,-000.1,0029.43,0013.77,0011.04
2023-03-05 12:04:00,,0815.2,5.00,0.00,21.7,20.7,00.0,30.4,23.3,14.0,-000.1,0029.81,0013.74,0011.06
2023-03-05 12:05:00,,0815.1,5.00,0.00,21.7,20.2,00.0,30.4,23.2,14.1,-000.2,0030.28,0013.77,0011.09
2023-03-05 12:06:00,,0815.5,5.00,0.00,21.6,19.9,00.0,30.4,23.1,14.1,0000.0,0029.33,0013.73,0011.10
2023-03-05 12:07:00,,0815.4,5.00,0.00,21.5,19.6,00.0,30.4,23.0,14.1,-000.0,0029.77,0013.65,0011.11
2023-03-05 12:08:00,,0815.5,5.00,0.00,21.5,19.5,00.0,30.4,23.0,14.2,-000.3,0029.43,0013.64,0011.09
2023-03-05 12:09:00,,0815.5,5.00,0.00,21.4,19.4,00.0,30.4,22.9,14.3,-000.4,0029.71,0013.63,0011.08
2023-03-05 12:10:00,,0815.4,5.01,0.00,21.5,20.4,00.0,30.3,23.1,14.3,-000.2,0029.54,0013.59,0011.09
2023-03-05 12:11:00,,0815.3,5.02,0.00,21.6,21.6,00.0,30.3,23.4,14.2,-000.4,0029.52,0013.51,0011.07
2023-03-05 12:12:00,,0815.2,4.99,0.00,21.7,22.4,00.0,30.4,23.6,14.0,-000.7,0029.15,0013.42,0011.04
2023-03-05 12:13:00,,0815.2,4.98,0.00,21.8,21.9,00.0,30.4,23.6,14.0,-000.7,0027.92,0013.31,0010.99
2023-03-05 12:14:00,,0815.2,4.99,0.00,21.7,21.2,00.0,30.4,23.4,14.0,-000.4,0027.61,0013.27,0010.98
2023-03-05 12:15:00,,0815.2,5.01,0.00,21.7,20.7,00.0,30.4,23.3,14.0,-000.4,0027.04,0013.23,0010.94
2023-03-05 12:16:00,,0815.2,5.01,0.00,21.6,20.2,00.0,30.4,23.2,14.1,-000.6,0026.21,0013.17,0010.90
2023-03-05 12:17:00,,0815.3,5.00,0.00,21.6,19.9,00.0,30.4,23.1,14.1,-000.7,0026.02,0013.13,0010.85
2023-03-05 12:18:00,,0815.4,5.00,0.00,21.5,19.7,00.0,30.4,23.0,14.2,-000.6,0025.23,0013.04,0010.79
2023-03-05 12:19:00,,0815.4,5.00,0.00,21.5,19.5,00.0,30.4,22.9,14.2,-000.6,0025.03,0012.89,0010.74
2023-03-05 12:20:00,,0815.2,5.01,0.00,21.4,19.6,00.0,30.3,22.9,14.3,-000.6,0024.55,0012.73,0010.65
2023-03-05 12:21:00,,0815.3,5.00,0.00,21.5,20.8,00.0,30.3,23.2,14.2,-000.7,0024.37,0012.51,0010.54
2023-03-05 12:22:00,,0815.4,4.99,0.00,21.6,22.0,00.0,30.3,23.5,14.1,-000.7,0023.47,0012.35,0010.43
2023-03-05 12:23:00,,0815.3,4.99,0.00,21.7,22.3,00.0,30.4,23.6,14.1,-000.5,0022.53,0012.27,0010.37
2023-03-05 12:24:00,,0815.3,5.00,0.00,21.7,21.6,00.0,30.4,23.5,14.1,-000.4,0022.12,0012.22,0010.36
2023-03-05 12:25:00,,0815.3,5.00,0.00,21.7,21.0,00.0,30.4,23.3,14.1,-000.6,0021.97,0012.11,0010.34
2023-03-05 12:26:00,,0815.3,5.00,0.00,21.7,20.5,00.0,30.4,23.2,14.1,-000.6,0021.54,0012.05,0010.32
2023-03-05 12:27:00,,0815.2,5.00,0.00,21.6,20.2,00.0,30.4,23.1,14.2,-000.2,0021.04,0012.01,0010.33
2023-03-05 12:28:00,,0815.2,5.01,0.00,21.5,19.9,00.0,30.4,23.1,14.3,-000.2,0021.43,0012.00,0010.34
2023-03-05 12:29:00,,0815.2,5.00,0.00,21.5,19.7,00.0,30.4,23.0,14.3,-000.3,0021.83,0012.05,0010.38
2023-03-05 12:30:00,,0815.3,5.00,0.00,21.5,19.5,00.0,30.3,22.9,14.3,-000.3,0021.33,0012.09,0010.42
2023-03-05 12:31:00,,0815.3,5.01,0.00,21.4,19.9,00.0,30.3,23.0,14.3,0000.0,0020.85,0012.14,0010.45
2023-03-05 12:32:00,,0815.6,5.00,0.00,21.5,21.3,00.0,30.3,23.3,14.3,-000.1,0020.47,0012.27,0010.50
2023-03-05 12:33:00,,0815.2,5.02,0.00,21.7,22.3,00.0,30.3,23.6,14.2,-000.2,0020.51,0012.44,0010.55
2023-03-05 12:34:00,,0815.4,4.97,0.00,21.7,22.0,00.0,30.4,23.6,14.1,-000.3,0020.72,0012.52,0010.61
2023-03-05 12:35:00,,0815.3,4.98,0.00,21.7,21.3,00.0,30.4,23.4,14.1,-000.4,0021.57,0012.68,0010.69
2023-03-05 12:36:00,,0815.4,5.01,0.00,21.7,20.8,00.0,30.4,23.2,14.1,-000.4,0022.53,0012.78,0010.74
2023-03-05 12:37:00,,0815.4,5.01,0.00,21.6,20.3,00.0,30.4,23.1,14.2,-000.6,0022.75,0012.90,0010.77
2023-03-05 12:38:00,,0815.2,5.00,0.00,21.5,19.9,00.0,30.4,22.9,14.2,-000.9,0022.81,0012.96,0010.80
2023-03-05 12:39:00,,0815.4,5.00,0.00,21.4,19.6,00.0,30.3,22.9,14.3,-000.8,0022.35,0012.92,0010.80
2023-03-05 12:40:00,,0815.5,5.00,0.00,21.4,19.4,00.0,30.3,22.8,14.3,-000.6,0022.79,0012.95,0010.79
2023-03-05 12:41:00,,0815.3,5.01,0.00,21.3,19.6,00.0,30.3,22.8,14.4,-000.8,0023.23,0012.98,0010.79
2023-03-05 12:42:00,,0815.5,5.01,0.00,21.4,21.0,00.0,30.2,23.1,14.3,-001.1,0023.21,0012.99,0010.78
2023-03-05 12:43:00,,0815.6,5.00,0.00,21.6,22.1,00.0,30.3,23.5,14.2,-001.1,0022.98,0012.95,0010.77
2023-03-05 12:44:00,,0815.3,4.96,0.00,21.7,22.7,00.0,30.3,23.7,14.1,-000.9,0022.93,0012.86,0010.75
2023-03-05 12:45:00,,0815.6,4.99,0.00,21.7,22.1,00.0,30.4,23.6,14.1,-000.7,0022.62,0012.70,0010.67
2023-03-05 12:46:00,,0815.5,5.01,0.00,21.7,21.3,00.0,30.4,23.4,14.1,-000.7,0021.51,0012.48,0010.54
2023-03-05 12:47:00,,0815.2,5.02,0.00,21.7,20.7,00.0,30.4,23.2,14.2,-000.5,0020.80,0012.33,0010.42
2023-03-05 12:48:00,,0815.2,4.99,0.00,21.6,20.3,00.0,30.4,23.1,14.2,-000.4,0020.66,0012.15,0010.32
2023-03-05 12:49:00,,0815.2,5.00,0.00,21.5,19.9,00.0,30.4,23.0,14.2,-000.3,0021.98,0012.05,0010.27
2023-03-05 12:50:00,,0815.2,5.00,0.00,21.5,19.6,00.0,30.4,22.9,14.3,-000.7,0022.17,0012.06,0010.23
2023-03-05 12:51:00,,0815.2,4.99,0.00,21.4,19.4,00.0,30.3,22.8,14.3,-000.9,0021.27,0011.99,0010.18
2023-03-05 12:52:00,,0815.2,4.99,0.00,21.3,19.3,00.0,30.3,22.7,14.3,-000.9,0020.88,0011.93,0010.15
2023-03-05 12:53:00,,0815.2,5.01,0.00,21.3,19.9,00.0,30.3,22.8,14.4,-000.7,0020.60,0011.82,0010.07
2023-03-05 12:54:00,,0815.2,5.00,0.00,21.4,21.3,00.0,30.2,23.2,14.3,-000.7,0020.28,0011.65,0009.97
2023-03-05 12:55:00,,0815.4,4.99,0.00,21.6,22.4,00.0,30.3,23.5,14.2,-000.8,0020.36,0011.47,0009.87
2023-03-05 12:56:00,,0815.1,5.03,0.00,21.7,22.6,00.0,30.3,23.6,14.2,-000.9,0020.28,0011.36,0009.80
2023-03-05 12:57:00,,0815.1,5.01,0.00,21.7,21.9,00.0,30.4,23.5,14.2,-001.0,0020.16,0011.25,0009.72
2023-03-05 12:58:00,,0815.1,4.99,0.00,21.7,21.2,00.0,30.4,23.3,14.2,-001.2,0019.63,0011.15,0009.68
2023-03-05 12:59:00,,0815.2,5.00,0.00,21.6,20.7,00.0,30.4,23.2,14.1,-001.3,0019.42,0011.10,0009.64
